Flag for Spain Weather past 2 weeks in Alicante, Spain

Now
63 °F

Passing clouds.


Feels Like: 63 °F
Forecast: 59 / 75 °F
Wind: No wind

Location: Alicante / El Altet

Current Time: Apr 26, 2015 at 3:45:21 AM

Latest Report: Apr 26, 2015 at 3:00 AM


Visibility: N/A

Pressure: 29.86 "Hg

Humidity: 88%

Dew point: 59 °F

Location of AlicanteLocation

Historic Weather in Alicante — Graph

°F

Alicante temperature yesterday

Maximum temperature yesterday: 77 °F (at 2:30 PM)
Minimum temperature yesterday: 55 °F (at 6:00 AM)
Average temperature yesterday: 66 °F

Past Weeks' High & Low Weather Summary

 TemperatureHumidityPressure
High77 °F (Apr 17, 1:00 PM)100% (Apr 16, 8:30 AM)30.36 "Hg (Apr 16, 8:30 AM)
Low50 °F (Apr 18, 6:30 AM)21% (Apr 19, 3:30 PM)29.86 "Hg (Apr 26, 2:30 AM)
Average63 °F67%30.10 "Hg
* Reported Apr 11 2:00 AM — Apr 26 2:30 AM, Alicante, Weather by CustomWeather, © 2015

Note: Actual official high and low records may vary slightly from our data, if they occured in-between our weather recording intervals... More about our weather records

Advertising

Alicante weather history for previous 24 hours

 ConditionsComfort  
Time TempWeatherWind HumidityBarometerVisibility
2:30 AM
Sun, Apr 26
63 °FPassing clouds.No wind88%29.86 "HgN/A
2:00 AM63 °FPassing clouds.2 mph88%29.89 "HgN/A
1:30 AM64 °FPassing clouds.No wind83%29.89 "HgN/A
1:00 AM63 °FPassing clouds.No wind94%29.89 "HgN/A
12:30 AM63 °FPassing clouds.5 mph94%29.89 "HgN/A
12:00 AM64 °FPassing clouds.6 mph83%29.92 "HgN/A
11:00 PM
Sat, Apr 25
64 °FPassing clouds.5 mph78%29.92 "HgN/A
10:30 PM64 °FPassing clouds.8 mph83%29.92 "HgN/A
10:00 PM66 °FPassing clouds.8 mph73%29.92 "HgN/A
9:30 PM66 °FPassing clouds.6 mph68%29.92 "HgN/A
9:00 PM68 °FPassing clouds.7 mph64%29.89 "HgN/A
8:30 PM68 °FPassing clouds.8 mph69%29.89 "HgN/A
8:00 PM68 °FPassing clouds.9 mph64%29.89 "HgN/A
7:30 PM70 °FPassing clouds.6 mph60%29.89 "HgN/A
7:00 PM72 °FSunny.3 mph53%29.89 "Hg10 mi
6:30 PM75 °FPassing clouds.7 mph41%29.89 "HgN/A
6:00 PM72 °FPassing clouds.7 mph57%29.89 "HgN/A
5:30 PM77 °FPassing clouds.8 mph34%29.89 "HgN/A
5:00 PM75 °FPassing clouds.7 mph41%29.89 "HgN/A
4:30 PM73 °FPassing clouds.7 mph47%29.92 "HgN/A
4:00 PM75 °FPassing clouds.10 mph44%29.92 "HgN/A
3:30 PM77 °FPassing clouds.10 mph44%29.92 "HgN/A
3:00 PM77 °FPassing clouds.9 mph39%29.92 "HgN/A
2:30 PM77 °FPassing clouds.9 mph39%29.95 "HgN/A
2:00 PM75 °FPassing clouds.6 mph54%29.95 "HgN/A
1:30 PM73 °FClear.8 mph61%29.95 "Hg5 mi
1:00 PM70 °FClear.10 mph69%29.98 "Hg4 mi
12:30 PM70 °FClear.9 mph69%29.98 "Hg4 mi
12:00 PM72 °FClear.9 mph65%29.98 "Hg4 mi
11:30 AM72 °FClear.5 mph65%29.98 "Hg4 mi
11:00 AM72 °FClear.7 mph57%29.98 "Hg5 mi
10:30 AM70 °FClear.6 mph57%29.98 "Hg4 mi
10:00 AM68 °FFog.6 mph64%29.98 "Hg3 mi
9:30 AM64 °FFog.No wind83%29.98 "Hg2 mi
9:00 AM63 °FFog.No wind83%29.98 "Hg2 mi
8:30 AM61 °FFog.No wind94%29.98 "Hg2 mi
8:00 AM57 °FFog.5 mph100%29.95 "Hg1 mi
7:30 AM57 °FFog.5 mph94%29.95 "Hg1 mi
7:00 AM57 °FFog.3 mph94%29.95 "Hg2 mi
6:30 AM55 °FFog.1 mph100%29.95 "Hg1 mi
6:00 AM55 °FFog.3 mph100%29.95 "Hg1 mi
5:30 AM57 °FFog.7 mph94%29.95 "Hg2 mi
5:00 AM57 °FPassing clouds.2 mph94%29.95 "Hg4 mi
4:30 AM57 °FPassing clouds.2 mph94%29.95 "Hg4 mi
4:00 AM57 °FPassing clouds.2 mph94%29.95 "Hg4 mi
3:30 AM59 °FPassing clouds.1 mph94%29.95 "Hg4 mi
3:00 AM61 °FPassing clouds.No wind88%29.98 "Hg4 mi
Weather by CustomWeather, © 2015

See weather overviewHow to use our weather pages